Regional Weather Roundup
Issued by NWS

Home | Current Version | Previous Version | Graphics & Text | Print | Product List | Glossary On
Versions: 1 2 3 4 5 6 7 8 9 10 11 12 13 14 15 16 17 18 19 20 21 22 23 24 25 26 27 28 29 30 31 32 33 34 35 36 37 38 39 40 41 42 43 44 45 46 47 48 49 50
444
ASUS43 KBIS 240002
RWRND

NORTH DAKOTA REGIONAL WEATHER ROUNDUP
NATIONAL WEATHER SERVICE BISMARCK ND
700 PM CDT FRI JUN 23 2017

NOTE: "FAIR" INDICATES FEW OR NO CLOUDS BELOW 12,000 FEET WITH NO
SIGNIFICANT WEATHER AND/OR OBSTRUCTIONS TO VISIBILITY.


NDZ001>003-009>011-017-240100-
NORTHWEST NORTH DAKOTA

CITY           SKY/WX    TMP DP  RH WIND       PRES   REMARKS
WILLISTON      CLOUDY    66  32  28 NW17G28   30.12S
6HR MIN TEMP:  64; 6HR MAX TEMP:  70;

MINOT          MOSUNNY   62  34  35 NW26G36   30.05S
MINOT AFB      MOSUNNY   62  35  37 NW24G31   30.04S
$$

NDZ018>021-031>035-040>046-240100-
SOUTHWEST NORTH DAKOTA

CITY           SKY/WX    TMP DP  RH WIND       PRES   REMARKS
BISMARCK       MOSUNNY   66  34  30 N24G31    30.07R
6HR MIN TEMP:  63; 6HR MAX TEMP:  69;

DICKINSON      SUNNY     65  26  23 NW22G29   30.11R
GARRISON         N/A     60  34  37 NW20G39   30.07R
6HR MIN TEMP:  58; 6HR MAX TEMP:  65;

HETTINGER ARPT SUNNY     66  28  24 NW24G32   30.14R
$$

NDZ004>008-012>016-024-026-027-054-240100-
NORTHEAST NORTH DAKOTA

CITY           SKY/WX    TMP DP  RH WIND       PRES   REMARKS
GRAND FORKS    PTSUNNY   62  42  47 NW20G28   29.93R
GRND FRKS AFB  PTSUNNY   61  40  46 N21G31    29.94R
DEVILS LAKE    CLOUDY    57  39  51 NW20      30.00R
$$

NDZ022-023-025-028>030-036>039-047>053-240100-
SOUTHEAST NORTH DAKOTA

CITY           SKY/WX    TMP DP  RH WIND       PRES   REMARKS
FARGO          CLOUDY    67  40  37 NW22G30   29.92R
6HR MIN TEMP:  63; 6HR MAX TEMP:  69;

JAMESTOWN      MOSUNNY   60  38  43 NW21G32   30.00R
$$





USA.gov is the U.S. government's official web portal to all federal, state and local government web resources and services.